{"data":{"norad_id":62304,"epoch":"2026-05-24T20:28:09.188832Z","epoch_age_seconds":77920,"freshness":"FRESH","line1":"1 62304U 24239D   26144.85288413  .00019407  00000+0  66561-3 0  9998","line2":"2 62304  53.1588 187.4530 0001134  82.5438 277.5691 15.30202009 81226","mean_motion":15.30202009,"eccentricity":0.0001134,"inclination_deg":53.1588,"raan_deg":187.453,"arg_perigee_deg":82.5438,"mean_anomaly_deg":277.5691,"bstar":0.00066561,"rev_number":8122,"period_min":94.105222155672,"perigee_km":474.43190146957,"apogee_km":475.98624035845,"semimajor_km":6853.346070914,"source":"CELESTRAK","updated_at":"2026-05-25T13:38:19.647619Z"}}